Torna al catalogo

FENGYUN 1C DEB

AttivoPO
NORAD 31374·DEBRIS·🇨🇳 China

Lanciato May 10, 1999 da Taiyuan Satellite Launch Center

Loading…

Prossimi Passaggi (prossime 24 ore)

TLE

In scadenzaSource: Space-Track

Epoca: Sep 11, 2026, 06:40 UTC

1 31374U 99025BSE 26254.27837638  .00003927  00000-0  11927-2 0  9999
2 31374  99.6410  62.6541 0135718 281.3772  77.2191 14.37649811999646

Traccia FENGYUN 1C DEB in tempo reale con AllMySat

Download on the App Store